Вернуться в каталог

COSMOS 2251 DEB

АктивенLEO
NORAD 33984·DEBRIS·🇷🇺 Russia

Запущен Jun 16, 1993 с Plesetsk Cosmodrome

Loading…

Ближайшие Пролёты (ближайшие 24 часа)

TLE

СвежийSource: Space-Track

Эпоха: Sep 14, 2026, 11:10 UTC

1 33984U 93036FT  26257.46531398  .00002545  00000-0  44243-3 0  9995
2 33984  74.0084 173.6179 0023935 293.2476 188.1032 14.68525487931119

Отслеживайте COSMOS 2251 DEB в реальном времени с AllMySat

Download on the App Store